Location: Linz
(48.3300°N, 14.3000°E)
Time: 05:19:01
(UTC+01:00)

N. Korean satellite - Visible Passes

Search period start: 21 November 2017 00:00
Search period end: 01 December 2017 00:00
Orbit: 460 x 514 km, 97.2° (Epoch: 20 November)

Date Brightness Start Highest point End Pass type
(mag) Time Alt. Az. Time Alt. Az. Time Alt. Az.
21 Nov 7.6 06:41:43 10° NNE 06:45:24 53° E 06:49:05 10° S visible
21 Nov 7.1 17:21:41 10° SE 17:24:55 34° ENE 17:28:12 10° N visible
21 Nov 9.4 18:56:03 10° SW 18:58:34 18° W 19:01:07 10° NW visible
22 Nov 9.0 06:18:31 10° NNE 06:21:50 29° E 06:25:08 10° SSE visible
22 Nov 7.9 16:58:57 10° ESE 17:01:36 20° ENE 17:04:17 10° NNE visible
22 Nov 8.3 18:31:42 10° SSW 18:34:55 33° W 18:38:13 10° NNW visible
23 Nov 9.8 05:55:42 10° NE 05:58:11 17° E 06:00:40 10° SE visible
23 Nov 7.0 18:07:51 10° S 18:11:21 64° W 18:14:57 10° NNW visible
24 Nov 6.4 17:44:21 10° SSE 17:47:52 66° ENE 17:51:28 10° N visible
24 Nov 10.2 19:21:22 10° W 19:21:51 10° W 19:22:20 10° W visible
25 Nov 7.6 06:41:17 10° NNE 06:44:58 53° E 06:48:40 10° S visible
25 Nov 7.1 17:21:12 10° SE 17:24:27 34° ENE 17:27:47 10° N visible
25 Nov 9.4 18:55:32 10° SW 18:58:06 19° W 19:00:43 10° NW visible
26 Nov 9.0 06:18:04 10° NNE 06:21:23 29° E 06:24:42 10° SSE visible
26 Nov 7.9 16:58:26 10° ESE 17:01:07 20° ENE 17:03:51 10° NNE visible
26 Nov 8.3 18:31:11 10° SSW 18:34:27 33° W 18:37:46 10° NNW visible
27 Nov 9.8 05:55:13 10° NE 05:57:43 17° E 06:00:12 10° SE visible
27 Nov 7.0 18:07:19 10° S 18:10:51 64° W 18:14:30 10° NNW visible
28 Nov 6.5 17:43:48 10° SSE 17:47:21 65° ENE 17:51:00 10° N visible
28 Nov 10.1 19:20:35 10° W 19:21:20 10° W 19:22:04 10° WNW visible
29 Nov 7.6 06:40:46 10° NNE 06:44:29 53° E 06:48:10 10° S visible
29 Nov 7.2 17:20:38 10° SE 17:23:55 35° ENE 17:27:17 10° N visible
29 Nov 9.4 18:54:57 10° SW 18:57:34 19° W 19:00:14 10° NW visible
30 Nov 9.0 06:17:32 10° NNE 06:20:52 29° E 06:24:11 10° SSE visible
30 Nov 7.9 16:57:51 10° ESE 17:00:34 20° ENE 17:03:20 10° NNE visible
30 Nov 8.3 18:30:36 10° SSW 18:33:54 34° W 18:37:16 10° NNW visible
